Regional Weather Roundup
Issued by NWS Mobile, AL

Home | Current Version | Previous Version | Text Only | Print | Product List | Glossary On
Versions: 1 2 3 4 5 6 7 8 9 10 11 12 13 14 15 16 17 18 19 20 21 22 23 24 25 26 27 28 29 30 31 32 33 34 35 36 37 38 39 40 41 42 43 44 45 46 47 48 49 50
000
ASUS44 KMOB 200410
RWRMOB
REGIONAL WEATHER ROUNDUP
NATIONAL WEATHER SERVICE MOBILE AL
1100 PM CDT FRI SEP 19 2014

NOTE: "FAIR" INDICATES FEW OR NO CLOUDS BELOW 12,000 FEET WITH NO
      SIGNIFICANT WEATHER AND/OR OBSTRUCTIONS TO VISIBILITY.

  * THESE STATIONS ARE PART OF THE UNIVERSITY OF SOUTH ALABAMA
    MESONET AND ARE NOT UNDER NWS OR FAA QUALITY CONTROL.

ALZ061>064-200500-
COASTAL ALABAMA

CITY           SKY/WX    TMP DP  RH WIND       PRES   REMARKS
MOBILE REG APT PTCLDY    73  70  90 NE3       30.01S
BROOKLEY FIELD CLEAR     79  70  74 E10       30.01S
USA CAMPUS*      N/A     72  68  88 CALM      30.01R
DOG RIVER*     NOT AVBL


CITY           SKY/WX    TMP DP  RH WIND       PRES   REMARKS
MOUNT VERNON*    N/A     68  66  94 CALM      30.02R
SARALAND*      NOT AVBL
BAY MINETTE*   NOT AVBL
LOXLEY*          N/A    N/A N/A N/A NE2       30.01R
ROBERTSDALE*     N/A    N/A N/A N/A CALM      30.00S
FAIRHOPE*        N/A     70  68  94 NE3       30.00R
ELBERTA*       NOT AVBL
FOLEY*         NOT AVBL
GRAND BAY*       N/A     72  70  94 CALM      29.98R
DAUPHIN ISLND* NOT AVBL
BON SCOUR NWR* NOT AVBL
GULF SHORES    CLEAR     75  68  78 E7        29.99S

$$

ALZ051>060-200500-
INTERIOR SOUTHWEST AND SOUTH CENTRAL ALABAMA

CITY           SKY/WX    TMP DP  RH WIND       PRES   REMARKS
GREENVILLE     CLEAR     71  65  81 CALM      30.04S
EVERGREEN      PTCLDY    73  69  87 CALM      30.04R
CASTLEBERRY*   NOT AVBL
ATMORE*          N/A     70  66  88 E5        30.05R
DIXIE*         NOT AVBL
ANDALUSIA/OPP  CLEAR     74  67  78 CALM      30.03S
ANDALUSIA*     NOT AVBL
FLORALA APT    CLEAR     71  68  90 CALM      30.05R
FLORALA*         N/A     70  68  94 CALM      30.01R

$$

FLZ001>006-200500-
WESTERN FLORIDA PANHANDLE

CITY           SKY/WX    TMP DP  RH WIND       PRES   REMARKS
PENSACOLA      CLEAR     74  69  85 NE5       30.00R
NAS PENSACOLA  CLEAR     79  68  69 E8        29.98F
MILTON         PTCLDY    73  65  75 CALM      30.01F
WHTNG S FIELD  PTCLDY    75  66  73 NE8       30.01F


CITY           SKY/WX    TMP DP  RH WIND       PRES   REMARKS
WALNUT HILL*   NOT AVBL
JAY*           NOT AVBL
DUKE FIELD     PTCLDY    72  72  98 N6        30.02R
CRESTVIEW      PTCLDY    69  68  96 CALM      30.03R
VALPARAISO     PTCLDY    75  67  76 E5        30.01S
DESTIN         PTCLDY    77  69  76 NE8       30.01S

$$

MSZ076-079-200500-
INTERIOR SOUTHEAST MISSISSIPPI

CITY           SKY/WX    TMP DP  RH WIND       PRES   REMARKS
LEAKESVILLE*     N/A     70  66  88 CALM      30.02R
AGRICOLA*      NOT AVBL

$$

MARINE OBSERVATIONS

STATION/POSITION TIME  TEMP    WIND        PRES    WAVE
                       AIR SEA DIR/SP/G            HT/PER
                 (UTC) (F)     (DEG/KT/KT) (MB)    (FT/S)
PASCAGOULA       0400   81     100/  6/  7 1015.2S
PETIT BOIS ISLND 0400   80     100/ 11/ 15 1015.4F
GRAND BAY        0300   81     120/ 11     1016.0S
KATRINA CUT      0300   82     110/ 15     1015.6R
CEDAR POINT      0300   80     110/ 13     1015.6R
E DAUPHIN ISLAND 0259   81     110/ 15/ 18 1015.2R
MIDDLE BAY LIGHT 0300   80     100/ 12     1015.2R
USCG MOBILE BAY  0400      86              1014.9R
STATE DOCKS      0400   79 86              1015.8R
MEAHER PARK      0300   78     100/  3     1015.9R
WEEKS BAY        0300   72                   N/A
FORT MORGAN      0400   81     110/ 14/ 19 1014.8S
12 S ORANGE BCH  0400   82 85  110/ 16/ 17 1015.1R   5/ 6
PENSACOLA BAY    0400   81 85  110/  2/  4 1015.8F
64 S DAUPHIN ISL 0332   81 84   90/ 19/ 23 1014.5R   7/ 7
67 S FORT MORGAN 0300   80     VRB 21      1013.9R

$$

SELECTED LOCATIONS ACROSS THE REGION

CITY           SKY/WX    TMP DP  RH WIND       PRES   REMARKS
NEW ORLEANS    CLEAR     79  67  66 E7        29.97R
GULFPORT       CLEAR     76  68  76 NE3       29.98S
PASCAGOULA AP  CLEAR     69  68  96 CALM      29.99R
PASCAGOULA*    NOT AVBL
HATTIESBURG    CLEAR     71  69  93 CALM      30.02R
LAUREL         CLEAR    N/A N/A N/A CALM      30.01S
MERIDIAN       MOCLDY    71  68  90 CALM      30.02R
JACKSON        CLEAR     72  69  90 CALM      30.00R
MONTGOMERY     CLEAR     72  65  78 E7        30.05S
TROY           CLEAR     70  66  87 NE3       30.06R
KINSTON*       NOT AVBL
GENEVA*          N/A     66  64  94 NE3       30.04F
ASHFORD*       NOT AVBL
DOTHAN         MOCLDY    72  68  87 CALM      30.08R
PANAMA CITY    CLEAR     70  67  90 NW5       29.99F

$$




USA.gov is the U.S. government's official web portal to all federal, state and local government web resources and services.